contact: severine.martini@mio.osupytheas.fr, dominique.lefevre@mio.osupytheas.fr
Project:EMSO Ligure-ouest http://www.emso-fr.org/EMSO-France
Sensor Optode, line 4330 Serial 272 
DOI : "https://doi.org/10.17882/97948" 
Title:EMSO Ligure Ouest : Data BathyDock capteur Optode - deploiement "2023-04-28"
Datetime,Profondeur,Latitude,Longitude,optode_type,serial,O2_concentration,O2_saturation,Temperature,Calibrated_Phase,Temp_Compensated_Phase,phase_blue_light,phase_red_light,Amplitude_blue_light,Amplitude_red_light,thermistor_bridge
time,m,degree_north,degree_east,1,1,umol.l-1,%,degree_C,degree,degree,degree,degree,mV,mV,mV
2023-12-24T00:00:08,2420,42.8014,5.9826,4330,272,186.772,57.193,13.303,36.023,36.603,41.190,4.587,295.8,545.4,291.5
2023-12-24T00:03:07,2420,42.8014,5.9826,4330,272,186.444,57.093,13.303,36.044,36.624,41.213,4.589,295.8,545.4,291.5
2023-12-24T00:06:07,2420,42.8014,5.9826,4330,272,186.370,57.071,13.303,36.049,36.629,41.213,4.584,295.7,545.4,291.4
2023-12-24T00:09:07,2420,42.8014,5.9826,4330,272,186.577,57.135,13.304,36.036,36.616,41.201,4.585,295.7,545.4,291.4
2023-12-24T00:12:07,2420,42.8014,5.9826,4330,272,186.592,57.139,13.303,36.034,36.614,41.200,4.586,295.7,545.3,291.5
2023-12-24T00:15:07,2420,42.8014,5.9826,4330,272,186.447,57.095,13.303,36.044,36.624,41.212,4.588,295.7,545.3,291.4
2023-12-24T00:18:07,2420,42.8014,5.9826,4330,272,186.437,57.094,13.305,36.044,36.624,41.212,4.588,295.7,545.4,291.4
2023-12-24T00:21:07,2420,42.8014,5.9826,4330,272,186.528,57.122,13.305,36.038,36.618,41.207,4.589,295.7,545.4,291.4
2023-12-24T00:24:08,2420,42.8014,5.9826,4330,272,186.644,57.155,13.303,36.031,36.612,41.198,4.587,295.7,545.3,291.5
2023-12-24T00:27:08,2420,42.8014,5.9826,4330,272,186.466,57.102,13.304,36.042,36.622,41.210,4.588,295.8,545.4,291.4
2023-12-24T00:30:08,2420,42.8014,5.9826,4330,272,186.319,57.055,13.302,36.053,36.633,41.219,4.587,295.7,545.3,291.5
2023-12-24T00:33:07,2420,42.8014,5.9826,4330,272,186.411,57.085,13.304,36.046,36.626,41.216,4.590,295.6,545.4,291.4
2023-12-24T00:36:07,2420,42.8014,5.9826,4330,272,186.343,57.063,13.303,36.051,36.631,41.216,4.585,295.7,545.3,291.5
2023-12-24T00:39:07,2420,42.8014,5.9826,4330,272,186.476,57.105,13.304,36.042,36.622,41.211,4.589,295.7,545.3,291.4
2023-12-24T00:42:08,2420,42.8014,5.9826,4330,272,186.190,57.018,13.305,36.060,36.640,41.227,4.587,295.8,545.4,291.4
2023-12-24T00:45:08,2420,42.8014,5.9826,4330,272,186.637,57.154,13.304,36.031,36.611,41.200,4.589,295.7,545.4,291.4
2023-12-24T00:48:08,2420,42.8014,5.9826,4330,272,186.437,57.095,13.306,36.044,36.624,41.216,4.592,295.7,545.3,291.4
2023-12-24T00:51:08,2420,42.8014,5.9826,4330,272,186.396,57.082,13.305,36.046,36.626,41.213,4.587,295.7,545.4,291.4
2023-12-24T00:54:07,2420,42.8014,5.9826,4330,272,186.500,57.113,13.305,36.040,36.620,41.204,4.585,295.7,545.4,291.4
2023-12-24T00:57:07,2420,42.8014,5.9826,4330,272,186.441,57.093,13.303,36.045,36.625,41.208,4.583,295.7,545.3,291.5
2023-12-24T01:00:07,2420,42.8014,5.9826,4330,272,186.463,57.101,13.304,36.043,36.623,41.210,4.587,295.8,545.4,291.4
2023-12-24T01:03:07,2420,42.8014,5.9826,4330,272,186.515,57.117,13.304,36.040,36.620,41.209,4.590,295.7,545.4,291.4
2023-12-24T01:06:07,2420,42.8014,5.9826,4330,272,186.570,57.132,13.303,36.036,36.616,41.206,4.590,295.7,545.4,291.5
2023-12-24T01:09:07,2420,42.8014,5.9826,4330,272,186.365,57.072,13.305,36.048,36.628,41.215,4.587,295.8,545.4,291.4
2023-12-24T01:12:08,2420,42.8014,5.9826,4330,272,186.514,57.117,13.305,36.039,36.619,41.207,4.588,295.7,545.4,291.4
2023-12-24T01:15:08,2420,42.8014,5.9826,4330,272,186.572,57.134,13.304,36.036,36.616,41.201,4.586,295.9,545.3,291.4
2023-12-24T01:18:07,2420,42.8014,5.9826,4330,272,186.398,57.083,13.305,36.046,36.626,41.215,4.589,295.8,545.4,291.4
2023-12-24T01:21:07,2420,42.8014,5.9826,4330,272,186.391,57.079,13.304,36.047,36.627,41.212,4.585,295.8,545.4,291.4
2023-12-24T01:24:07,2420,42.8014,5.9826,4330,272,186.445,57.097,13.305,36.043,36.623,41.210,4.587,295.8,545.3,291.4
2023-12-24T01:27:08,2420,42.8014,5.9826,4330,272,186.193,57.020,13.306,36.059,36.639,41.224,4.584,295.8,545.4,291.4
2023-12-24T01:30:08,2420,42.8014,5.9826,4330,272,186.150,57.006,13.305,36.063,36.642,41.228,4.585,295.8,545.3,291.4
2023-12-24T01:33:07,2420,42.8014,5.9826,4330,272,186.516,57.117,13.304,36.039,36.619,41.208,4.589,295.7,545.4,291.4
2023-12-24T01:36:07,2420,42.8014,5.9826,4330,272,186.400,57.082,13.305,36.046,36.626,41.216,4.590,295.7,545.4,291.4
2023-12-24T01:39:07,2420,42.8014,5.9826,4330,272,186.448,57.096,13.304,36.044,36.624,41.212,4.588,295.8,545.4,291.4
2023-12-24T01:42:07,2420,42.8014,5.9826,4330,272,186.422,57.090,13.305,36.044,36.624,41.216,4.592,295.7,545.4,291.4
2023-12-24T01:45:07,2420,42.8014,5.9826,4330,272,186.409,57.088,13.307,36.044,36.624,41.214,4.589,295.7,545.4,291.3
2023-12-24T01:48:08,2420,42.8014,5.9826,4330,272,186.355,57.068,13.304,36.049,36.629,41.214,4.584,295.7,545.4,291.4
2023-12-24T01:51:08,2420,42.8014,5.9826,4330,272,186.393,57.079,13.303,36.048,36.628,41.210,4.583,295.8,545.4,291.4
2023-12-24T01:54:08,2420,42.8014,5.9826,4330,272,186.350,57.067,13.304,36.050,36.630,41.217,4.587,295.7,545.3,291.4
2023-12-24T01:57:07,2420,42.8014,5.9826,4330,272,186.364,57.072,13.305,36.048,36.628,41.219,4.591,295.7,545.4,291.4
2023-12-24T02:00:07,2420,42.8014,5.9826,4330,272,186.528,57.121,13.304,36.039,36.619,41.208,4.590,295.7,545.3,291.4
2023-12-24T02:03:07,2420,42.8014,5.9826,4330,272,186.287,57.046,13.303,36.055,36.635,41.224,4.589,295.7,545.4,291.4
2023-12-24T02:06:07,2420,42.8014,5.9826,4330,272,186.310,57.053,13.303,36.052,36.632,41.217,4.584,295.8,545.3,291.4
2023-12-24T02:09:07,2420,42.8014,5.9826,4330,272,186.471,57.102,13.303,36.043,36.623,41.211,4.588,295.8,545.3,291.5
2023-12-24T02:12:07,2420,42.8014,5.9826,4330,272,186.467,57.101,13.303,36.042,36.622,41.213,4.590,295.7,545.4,291.4
2023-12-24T02:15:07,2420,42.8014,5.9826,4330,272,186.535,57.122,13.303,36.038,36.618,41.211,4.593,295.8,545.3,291.4
2023-12-24T02:18:07,2420,42.8014,5.9826,4330,272,186.470,57.103,13.304,36.042,36.622,41.208,4.586,295.7,545.4,291.4
2023-12-24T02:21:07,2420,42.8014,5.9826,4330,272,186.404,57.084,13.305,36.046,36.626,41.213,4.587,295.7,545.3,291.4
2023-12-24T02:24:08,2420,42.8014,5.9826,4330,272,186.364,57.072,13.305,36.048,36.628,41.217,4.588,295.8,545.4,291.4
2023-12-24T02:27:08,2420,42.8014,5.9826,4330,272,186.368,57.073,13.305,36.048,36.627,41.216,4.588,295.8,545.4,291.4
2023-12-24T02:30:08,2420,42.8014,5.9826,4330,272,186.545,57.128,13.306,36.036,36.617,41.204,4.587,295.7,545.4,291.4
2023-12-24T02:33:07,2420,42.8014,5.9826,4330,272,186.416,57.088,13.305,36.045,36.625,41.207,4.582,295.7,545.3,291.4
2023-12-24T02:36:07,2420,42.8014,5.9826,4330,272,186.361,57.072,13.306,36.048,36.628,41.217,4.589,295.8,545.4,291.4
2023-12-24T02:39:07,2420,42.8014,5.9826,4330,272,186.597,57.145,13.306,36.033,36.613,41.198,4.585,295.7,545.3,291.4
2023-12-24T02:42:07,2420,42.8014,5.9826,4330,272,186.488,57.113,13.307,36.039,36.619,41.207,4.588,295.8,545.4,291.3
2023-12-24T02:45:08,2420,42.8014,5.9826,4330,272,186.505,57.119,13.308,36.038,36.618,41.210,4.592,295.8,545.4,291.3
2023-12-24T02:48:08,2420,42.8014,5.9826,4330,272,186.443,57.096,13.305,36.043,36.623,41.213,4.590,295.8,545.4,291.4
2023-12-24T02:51:08,2420,42.8014,5.9826,4330,272,186.601,57.145,13.305,36.033,36.613,41.205,4.591,295.8,545.4,291.4
2023-12-24T02:54:07,2420,42.8014,5.9826,4330,272,186.696,57.172,13.303,36.028,36.608,41.199,4.591,295.8,545.4,291.4
2023-12-24T02:57:07,2420,42.8014,5.9826,4330,272,186.233,57.035,13.307,36.056,36.636,41.227,4.591,295.7,545.4,291.3
2023-12-24T03:00:08,2420,42.8014,5.9826,4330,272,186.391,57.080,13.305,36.047,36.627,41.212,4.585,295.7,545.3,291.4
2023-12-24T03:03:07,2420,42.8014,5.9826,4330,272,186.392,57.080,13.305,36.047,36.627,41.218,4.591,295.7,545.4,291.4
2023-12-24T03:06:08,2420,42.8014,5.9826,4330,272,186.553,57.131,13.306,36.035,36.616,41.205,4.590,295.7,545.4,291.4
2023-12-24T03:09:08,2420,42.8014,5.9826,4330,272,186.607,57.148,13.306,36.032,36.612,41.206,4.593,295.7,545.3,291.4
2023-12-24T03:12:07,2420,42.8014,5.9826,4330,272,186.498,57.114,13.306,36.039,36.619,41.208,4.589,295.7,545.4,291.4
2023-12-24T03:15:07,2420,42.8014,5.9826,4330,272,186.637,57.157,13.306,36.030,36.610,41.199,4.588,295.8,545.3,291.3
2023-12-24T03:18:07,2420,42.8014,5.9826,4330,272,186.402,57.084,13.306,36.045,36.625,41.220,4.595,295.7,545.3,291.4
2023-12-24T03:21:07,2420,42.8014,5.9826,4330,272,186.234,57.030,13.303,36.058,36.638,41.228,4.591,295.7,545.4,291.5
2023-12-24T03:24:07,2420,42.8014,5.9826,4330,272,186.740,57.187,13.305,36.024,36.604,41.194,4.589,295.7,545.4,291.4
2023-12-24T03:27:07,2420,42.8014,5.9826,4330,272,186.398,57.082,13.305,36.046,36.626,41.211,4.585,295.8,545.3,291.4
2023-12-24T03:30:08,2420,42.8014,5.9826,4330,272,186.224,57.032,13.307,36.057,36.637,41.224,4.588,295.8,545.4,291.3
2023-12-24T03:33:07,2420,42.8014,5.9826,4330,272,186.385,57.080,13.306,36.046,36.626,41.214,4.588,295.8,545.4,291.4
2023-12-24T03:36:08,2420,42.8014,5.9826,4330,272,186.392,57.080,13.304,36.047,36.627,41.216,4.590,295.8,545.3,291.4
2023-12-24T03:39:08,2420,42.8014,5.9826,4330,272,186.613,57.151,13.307,36.032,36.612,41.201,4.589,295.8,545.4,291.3
2023-12-24T03:42:08,2420,42.8014,5.9826,4330,272,186.260,57.043,13.307,36.054,36.634,41.212,4.579,295.7,545.4,291.3
2023-12-24T03:45:08,2420,42.8014,5.9826,4330,272,186.526,57.121,13.305,36.038,36.618,41.204,4.586,295.7,545.4,291.4
2023-12-24T03:48:07,2420,42.8014,5.9826,4330,272,186.374,57.075,13.305,36.048,36.628,41.216,4.588,295.7,545.3,291.4
2023-12-24T03:51:07,2420,42.8014,5.9826,4330,272,186.553,57.128,13.303,36.037,36.617,41.205,4.588,295.7,545.3,291.4
2023-12-24T03:54:07,2420,42.8014,5.9826,4330,272,186.244,57.037,13.307,36.055,36.635,41.221,4.586,295.7,545.3,291.3
2023-12-24T03:57:07,2420,42.8014,5.9826,4330,272,186.673,57.168,13.306,36.028,36.608,41.198,4.590,295.7,545.4,291.3
2023-12-24T04:00:08,2420,42.8014,5.9826,4330,272,186.255,57.042,13.308,36.054,36.634,41.222,4.588,295.8,545.3,291.3
2023-12-24T04:03:07,2420,42.8014,5.9826,4330,272,186.531,57.122,13.304,36.038,36.618,41.204,4.585,295.8,545.3,291.4
2023-12-24T04:06:07,2420,42.8014,5.9826,4330,272,186.526,57.122,13.305,36.037,36.617,41.204,4.587,295.8,545.3,291.4
2023-12-24T04:09:07,2420,42.8014,5.9826,4330,272,186.311,57.064,13.312,36.049,36.629,41.211,4.582,295.8,545.4,291.2
2023-12-24T04:12:07,2420,42.8014,5.9826,4330,272,186.458,57.105,13.308,36.041,36.621,41.206,4.585,295.7,545.3,291.3
2023-12-24T04:15:07,2420,42.8014,5.9826,4330,272,186.725,57.185,13.307,36.024,36.604,41.192,4.588,295.7,545.3,291.3
2023-12-24T04:18:08,2420,42.8014,5.9826,4330,272,186.226,57.029,13.304,36.058,36.638,41.219,4.581,295.8,545.3,291.4
2023-12-24T04:21:08,2420,42.8014,5.9826,4330,272,186.475,57.111,13.309,36.039,36.619,41.206,4.586,295.7,545.4,291.3
2023-12-24T04:24:08,2420,42.8014,5.9826,4330,272,186.417,57.094,13.310,36.043,36.623,41.215,4.593,295.7,545.3,291.2
2023-12-24T04:27:07,2420,42.8014,5.9826,4330,272,186.467,57.105,13.307,36.041,36.621,41.200,4.579,295.7,545.4,291.3
2023-12-24T04:30:07,2420,42.8014,5.9826,4330,272,186.294,57.056,13.309,36.051,36.631,41.218,4.587,295.7,545.4,291.3
2023-12-24T04:33:08,2420,42.8014,5.9826,4330,272,186.416,57.091,13.308,36.044,36.624,41.209,4.585,295.7,545.4,291.3
2023-12-24T04:36:07,2420,42.8014,5.9826,4330,272,186.705,57.180,13.308,36.025,36.605,41.195,4.590,295.8,545.3,291.3
2023-12-24T04:39:07,2420,42.8014,5.9826,4330,272,186.176,57.023,13.312,36.058,36.637,41.224,4.587,295.8,545.3,291.2
2023-12-24T04:42:07,2420,42.8014,5.9826,4330,272,186.246,57.042,13.310,36.053,36.633,41.214,4.581,295.9,545.4,291.2
2023-12-24T04:45:07,2420,42.8014,5.9826,4330,272,186.545,57.137,13.312,36.033,36.613,41.203,4.590,295.8,545.4,291.2
2023-12-24T04:48:08,2420,42.8014,5.9826,4330,272,186.476,57.108,13.307,36.040,36.620,41.202,4.582,295.7,545.4,291.3
2023-12-24T04:51:08,2420,42.8014,5.9826,4330,272,186.399,57.085,13.307,36.045,36.625,41.214,4.589,295.8,545.3,291.3
2023-12-24T04:54:08,2420,42.8014,5.9826,4330,272,186.505,57.119,13.308,36.038,36.618,41.203,4.585,295.7,545.4,291.3
2023-12-24T04:57:08,2420,42.8014,5.9826,4330,272,186.656,57.164,13.307,36.028,36.609,41.196,4.588,295.8,545.3,291.3
2023-12-24T05:00:07,2420,42.8014,5.9826,4330,272,186.480,57.107,13.305,36.041,36.621,41.211,4.590,295.8,545.4,291.4
2023-12-24T05:03:07,2420,42.8014,5.9826,4330,272,186.519,57.121,13.307,36.037,36.617,41.208,4.590,295.7,545.4,291.3
2023-12-24T05:06:07,2420,42.8014,5.9826,4330,272,186.391,57.084,13.308,36.045,36.625,41.208,4.583,295.8,545.3,291.3
2023-12-24T05:09:07,2420,42.8014,5.9826,4330,272,186.556,57.131,13.305,36.036,36.616,41.200,4.584,295.7,545.4,291.4
2023-12-24T05:12:07,2420,42.8014,5.9826,4330,272,186.592,57.141,13.304,36.034,36.614,41.202,4.588,295.7,545.4,291.4
2023-12-24T05:15:08,2420,42.8014,5.9826,4330,272,186.685,57.169,13.304,36.028,36.609,41.195,4.587,295.7,545.4,291.4
2023-12-24T05:18:08,2420,42.8014,5.9826,4330,272,186.368,57.075,13.306,36.048,36.628,41.215,4.587,295.7,545.3,291.4
2023-12-24T05:21:08,2420,42.8014,5.9826,4330,272,186.656,57.168,13.311,36.027,36.607,41.198,4.591,295.8,545.4,291.2
2023-12-24T05:24:07,2420,42.8014,5.9826,4330,272,186.532,57.123,13.305,36.038,36.618,41.205,4.587,295.8,545.4,291.4
2023-12-24T05:27:07,2420,42.8014,5.9826,4330,272,186.328,57.063,13.307,36.050,36.630,41.222,4.592,295.7,545.4,291.3
2023-12-24T05:30:08,2420,42.8014,5.9826,4330,272,186.623,57.156,13.309,36.030,36.610,41.201,4.591,295.8,545.4,291.3
2023-12-24T05:33:07,2420,42.8014,5.9826,4330,272,186.329,57.063,13.307,36.050,36.630,41.217,4.587,295.7,545.4,291.3
2023-12-24T05:36:07,2420,42.8014,5.9826,4330,272,186.519,57.122,13.307,36.038,36.618,41.210,4.592,295.7,545.4,291.3
2023-12-24T05:39:07,2420,42.8014,5.9826,4330,272,186.255,57.044,13.309,36.053,36.633,41.221,4.587,295.7,545.3,291.2
2023-12-24T05:42:08,2420,42.8014,5.9826,4330,272,186.495,57.123,13.314,36.036,36.616,41.206,4.590,295.7,545.4,291.1
2023-12-24T05:45:08,2420,42.8014,5.9826,4330,272,186.464,57.117,13.317,36.036,36.617,41.210,4.593,295.8,545.3,291.0
2023-12-24T05:48:08,2420,42.8014,5.9826,4330,272,186.596,57.150,13.310,36.031,36.611,41.200,4.589,295.8,545.4,291.2
2023-12-24T05:51:08,2420,42.8014,5.9826,4330,272,186.374,57.085,13.313,36.044,36.624,41.212,4.588,295.8,545.3,291.1
2023-12-24T05:54:07,2420,42.8014,5.9826,4330,272,186.408,57.089,13.307,36.044,36.624,41.206,4.582,295.7,545.4,291.3
2023-12-24T05:57:07,2420,42.8014,5.9826,4330,272,186.406,57.087,13.307,36.045,36.625,41.212,4.587,295.7,545.3,291.3
2023-12-24T06:00:07,2420,42.8014,5.9826,4330,272,186.492,57.124,13.315,36.035,36.615,41.202,4.587,295.7,545.3,291.1
2023-12-24T06:03:07,2420,42.8014,5.9826,4330,272,186.422,57.094,13.308,36.043,36.623,41.213,4.589,295.7,545.3,291.3
2023-12-24T06:06:07,2420,42.8014,5.9826,4330,272,186.638,57.160,13.309,36.029,36.609,41.203,4.594,295.7,545.3,291.3
2023-12-24T06:09:07,2420,42.8014,5.9826,4330,272,186.555,57.140,13.313,36.032,36.612,41.201,4.589,295.7,545.3,291.1
2023-12-24T06:12:08,2420,42.8014,5.9826,4330,272,186.304,57.063,13.313,36.049,36.629,41.215,4.586,295.7,545.3,291.1
2023-12-24T06:15:08,2420,42.8014,5.9826,4330,272,186.357,57.070,13.305,36.049,36.629,41.215,4.586,295.8,545.3,291.4
2023-12-24T06:18:08,2420,42.8014,5.9826,4330,272,186.612,57.151,13.307,36.031,36.611,41.200,4.589,295.7,545.4,291.3
2023-12-24T06:21:08,2420,42.8014,5.9826,4330,272,186.521,57.122,13.306,36.037,36.617,41.201,4.584,295.7,545.4,291.3
2023-12-24T06:24:07,2420,42.8014,5.9826,4330,272,186.466,57.108,13.309,36.039,36.619,41.207,4.588,295.6,545.3,291.2
2023-12-24T06:27:07,2420,42.8014,5.9826,4330,272,186.579,57.141,13.307,36.034,36.614,41.196,4.583,295.7,545.3,291.3
2023-12-24T06:30:07,2420,42.8014,5.9826,4330,272,186.650,57.162,13.307,36.029,36.609,41.204,4.595,295.7,545.4,291.3
2023-12-24T06:33:07,2420,42.8014,5.9826,4330,272,186.555,57.135,13.309,36.035,36.615,41.198,4.583,295.7,545.4,291.3
2023-12-24T06:36:07,2420,42.8014,5.9826,4330,272,186.111,56.998,13.308,36.063,36.643,41.231,4.588,295.8,545.4,291.3
2023-12-24T06:39:07,2420,42.8014,5.9826,4330,272,186.219,57.033,13.310,36.056,36.636,41.218,4.583,295.7,545.3,291.2
2023-12-24T06:42:08,2420,42.8014,5.9826,4330,272,186.563,57.137,13.309,36.034,36.614,41.201,4.588,295.7,545.4,291.3
2023-12-24T06:45:08,2420,42.8014,5.9826,4330,272,186.522,57.130,13.312,36.035,36.615,41.202,4.588,295.7,545.4,291.1
2023-12-24T06:48:08,2420,42.8014,5.9826,4330,272,186.564,57.141,13.311,36.033,36.613,41.201,4.589,295.7,545.3,291.2
2023-12-24T06:51:08,2420,42.8014,5.9826,4330,272,186.530,57.132,13.313,36.034,36.614,41.204,4.590,295.7,545.4,291.1
2023-12-24T06:54:07,2420,42.8014,5.9826,4330,272,186.319,57.061,13.307,36.050,36.630,41.216,4.586,295.7,545.3,291.3
2023-12-24T06:57:07,2420,42.8014,5.9826,4330,272,186.479,57.114,13.310,36.038,36.618,41.206,4.588,295.7,545.4,291.2
2023-12-24T07:00:07,2420,42.8014,5.9826,4330,272,186.498,57.120,13.311,36.037,36.617,41.205,4.588,295.7,545.4,291.2
2023-12-24T07:03:07,2420,42.8014,5.9826,4330,272,186.372,57.080,13.310,36.046,36.626,41.212,4.586,295.8,545.3,291.2
2023-12-24T07:06:07,2420,42.8014,5.9826,4330,272,186.412,57.093,13.310,36.043,36.623,41.204,4.581,295.7,545.3,291.2
2023-12-24T07:09:07,2420,42.8014,5.9826,4330,272,186.537,57.128,13.307,36.036,36.616,41.206,4.590,295.7,545.3,291.3
2023-12-24T07:12:08,2420,42.8014,5.9826,4330,272,186.532,57.129,13.309,36.036,36.616,41.206,4.590,295.6,545.3,291.3
2023-12-24T07:15:08,2420,42.8014,5.9826,4330,272,186.512,57.129,13.315,36.034,36.614,41.203,4.589,295.8,545.4,291.1
2023-12-24T07:18:08,2420,42.8014,5.9826,4330,272,186.376,57.080,13.309,36.046,36.626,41.215,4.589,295.7,545.3,291.3
2023-12-24T07:21:07,2420,42.8014,5.9826,4330,272,186.412,57.093,13.310,36.042,36.622,41.205,4.582,295.7,545.2,291.2
2023-12-24T07:24:07,2420,42.8014,5.9826,4330,272,186.482,57.116,13.312,36.038,36.618,41.214,4.597,295.7,545.3,291.2
2023-12-24T07:27:07,2420,42.8014,5.9826,4330,272,186.531,57.133,13.313,36.034,36.614,41.203,4.589,295.9,545.3,291.1
2023-12-24T07:30:07,2420,42.8014,5.9826,4330,272,186.440,57.101,13.310,36.041,36.621,41.213,4.592,295.7,545.3,291.2
2023-12-24T07:33:07,2420,42.8014,5.9826,4330,272,186.419,57.095,13.310,36.043,36.623,41.214,4.592,295.8,545.3,291.2
2023-12-24T07:36:07,2420,42.8014,5.9826,4330,272,186.396,57.089,13.311,36.043,36.623,41.213,4.590,295.8,545.3,291.2
2023-12-24T07:39:08,2420,42.8014,5.9826,4330,272,186.293,57.063,13.315,36.048,36.628,41.215,4.587,295.7,545.3,291.1
2023-12-24T07:42:08,2420,42.8014,5.9826,4330,272,186.505,57.116,13.306,36.039,36.619,41.208,4.589,295.7,545.3,291.4
2023-12-24T07:45:08,2420,42.8014,5.9826,4330,272,186.401,57.087,13.308,36.045,36.625,41.213,4.588,295.7,545.4,291.3
2023-12-24T07:48:08,2420,42.8014,5.9826,4330,272,186.583,57.143,13.308,36.033,36.613,41.198,4.586,295.7,545.3,291.3
2023-12-24T07:51:07,2420,42.8014,5.9826,4330,272,186.401,57.091,13.311,36.042,36.622,41.208,4.586,295.8,545.4,291.2
2023-12-24T07:54:07,2420,42.8014,5.9826,4330,272,186.568,57.148,13.316,36.030,36.610,41.200,4.590,295.7,545.3,291.0
2023-12-24T07:57:07,2420,42.8014,5.9826,4330,272,186.422,57.102,13.315,36.040,36.620,41.209,4.589,295.8,545.3,291.1
2023-12-24T08:00:07,2420,42.8014,5.9826,4330,272,186.637,57.162,13.310,36.028,36.608,41.193,4.585,295.7,545.4,291.2
2023-12-24T08:03:08,2420,42.8014,5.9826,4330,272,186.449,57.106,13.311,36.040,36.620,41.204,4.584,295.7,545.2,291.2
2023-12-24T08:06:07,2420,42.8014,5.9826,4330,272,186.284,57.056,13.312,36.050,36.630,41.221,4.591,295.7,545.3,291.2
2023-12-24T08:09:07,2420,42.8014,5.9826,4330,272,186.325,57.074,13.316,36.046,36.626,41.213,4.587,295.7,545.2,291.0
2023-12-24T08:12:07,2420,42.8014,5.9826,4330,272,186.530,57.136,13.316,36.033,36.613,41.201,4.589,295.8,545.4,291.0
2023-12-24T08:15:07,2420,42.8014,5.9826,4330,272,186.248,57.052,13.317,36.050,36.630,41.222,4.592,295.7,545.3,291.0
2023-12-24T08:18:07,2420,42.8014,5.9826,4330,272,186.358,57.083,13.315,36.044,36.624,41.210,4.587,295.8,545.3,291.0
2023-12-24T08:21:08,2420,42.8014,5.9826,4330,272,186.293,57.065,13.316,36.047,36.627,41.212,4.585,295.7,545.3,291.0
2023-12-24T08:24:08,2420,42.8014,5.9826,4330,272,186.297,57.064,13.315,36.048,36.628,41.218,4.590,295.8,545.3,291.1
2023-12-24T08:27:08,2420,42.8014,5.9826,4330,272,186.335,57.074,13.314,36.047,36.626,41.213,4.586,295.8,545.2,291.1
2023-12-24T08:30:08,2420,42.8014,5.9826,4330,272,186.377,57.088,13.315,36.043,36.623,41.208,4.585,295.8,545.3,291.1
2023-12-24T08:33:07,2420,42.8014,5.9826,4330,272,186.280,57.054,13.311,36.051,36.631,41.216,4.585,295.9,545.4,291.2
2023-12-24T08:36:07,2420,42.8014,5.9826,4330,272,186.441,57.105,13.313,36.039,36.619,41.207,4.587,295.8,545.3,291.1
2023-12-24T08:39:07,2420,42.8014,5.9826,4330,272,186.519,57.125,13.309,36.036,36.616,41.200,4.584,295.8,545.3,291.3
2023-12-24T08:42:07,2420,42.8014,5.9826,4330,272,186.402,57.093,13.312,36.043,36.623,41.212,4.589,295.8,545.4,291.2
2023-12-24T08:45:08,2420,42.8014,5.9826,4330,272,186.393,57.089,13.311,36.043,36.623,41.209,4.586,295.8,545.4,291.2
2023-12-24T08:48:08,2420,42.8014,5.9826,4330,272,186.398,57.091,13.312,36.043,36.623,41.214,4.591,295.8,545.3,291.2
2023-12-24T08:51:08,2420,42.8014,5.9826,4330,272,186.319,57.070,13.314,36.047,36.627,41.211,4.584,295.7,545.2,291.1
2023-12-24T08:54:08,2420,42.8014,5.9826,4330,272,186.487,57.119,13.313,36.036,36.616,41.208,4.592,295.8,545.3,291.1
2023-12-24T08:57:07,2420,42.8014,5.9826,4330,272,186.274,57.057,13.315,36.050,36.630,41.214,4.584,295.8,545.2,291.1
2023-12-24T09:00:07,2420,42.8014,5.9826,4330,272,186.218,57.036,13.312,36.055,36.635,41.218,4.584,295.7,545.3,291.2
2023-12-24T09:03:07,2420,42.8014,5.9826,4330,272,186.170,57.019,13.310,36.059,36.639,41.223,4.584,295.8,545.4,291.2
2023-12-24T09:06:07,2420,42.8014,5.9826,4330,272,186.359,57.079,13.312,36.046,36.626,41.213,4.588,295.8,545.3,291.2
2023-12-24T09:09:07,2420,42.8014,5.9826,4330,272,186.237,57.042,13.312,36.053,36.633,41.220,4.586,295.8,545.3,291.2
2023-12-24T09:12:07,2420,42.8014,5.9826,4330,272,186.243,57.047,13.314,36.052,36.632,41.218,4.587,295.8,545.3,291.1
2023-12-24T09:15:08,2420,42.8014,5.9826,4330,272,186.176,57.026,13.314,36.056,36.636,41.223,4.587,295.8,545.3,291.1
2023-12-24T09:18:08,2420,42.8014,5.9826,4330,272,186.213,57.036,13.313,36.055,36.634,41.219,4.585,295.8,545.3,291.1
2023-12-24T09:21:07,2420,42.8014,5.9826,4330,272,186.383,57.088,13.313,36.043,36.623,41.212,4.589,295.8,545.3,291.1
2023-12-24T09:24:07,2420,42.8014,5.9826,4330,272,186.410,57.097,13.314,36.041,36.621,41.208,4.587,295.7,545.3,291.1
2023-12-24T09:27:07,2420,42.8014,5.9826,4330,272,186.631,57.166,13.315,36.026,36.606,41.203,4.596,295.8,545.2,291.1
2023-12-24T09:30:07,2420,42.8014,5.9826,4330,272,186.175,57.023,13.312,36.057,36.637,41.220,4.583,295.9,545.4,291.2
2023-12-24T09:33:07,2420,42.8014,5.9826,4330,272,186.403,57.092,13.312,36.042,36.622,41.211,4.589,295.9,545.3,291.2
2023-12-24T09:36:07,2420,42.8014,5.9826,4330,272,186.384,57.087,13.313,36.043,36.623,41.215,4.591,295.8,545.3,291.1
2023-12-24T09:39:07,2420,42.8014,5.9826,4330,272,186.240,57.043,13.312,36.053,36.633,41.221,4.587,295.9,545.3,291.2
2023-12-24T09:42:08,2420,42.8014,5.9826,4330,272,186.214,57.034,13.311,36.055,36.635,41.223,4.588,295.7,545.3,291.2
2023-12-24T09:45:08,2420,42.8014,5.9826,4330,272,186.273,57.056,13.314,36.050,36.630,41.218,4.588,295.8,545.3,291.1
2023-12-24T09:48:08,2420,42.8014,5.9826,4330,272,186.259,57.050,13.313,36.052,36.631,41.220,4.589,295.8,545.3,291.1
2023-12-24T09:51:08,2420,42.8014,5.9826,4330,272,186.516,57.130,13.314,36.034,36.615,41.201,4.586,295.8,545.3,291.1
2023-12-24T09:54:08,2420,42.8014,5.9826,4330,272,186.142,57.011,13.311,36.060,36.640,41.230,4.590,295.9,545.3,291.2
2023-12-24T09:57:07,2420,42.8014,5.9826,4330,272,186.225,57.037,13.311,36.054,36.634,41.222,4.587,295.8,545.4,291.2
2023-12-24T10:00:07,2420,42.8014,5.9826,4330,272,186.274,57.056,13.315,36.050,36.630,41.214,4.584,295.8,545.3,291.1